Location: Doazon
(43.4500°N, 0.5500°W)
Time: 23:28:40
(UTC+00:00)

CZ-2D R/B - Pass Details

Date: 05 December 2025
Orbit: 525 x 597 km, 98.0° (Epoch: 19 January)

Event Time Altitude Azimuth Distance (km) Brightness Sun altitude
Rises 17:34:00 0° 139° (SE) 2,832 6.7 -12.0°
Reaches altitude 10° 17:36:22 10° 128° (SE) 1,934 5.8 -12.4°
Maximum altitude 17:40:00 29° 68° (ENE) 1,106 4.3 -13.0°
Drops below altitude 10° 17:43:38 10° 9° (N) 1,935 5.8 -13.6°
Sets 17:46:00 0° 358° (N) 2,834 6.8 -14.0°
